User: anonymous   Login
Location: Unspecified
(0.0000°N, 0.0000°E)
Time: 10:20:19
(UTC+00:00)
Language:

OFEQ 10 - Orbit

View from above orbital plane
View from above orbital plane
View from above satellite
View from above satellite

Ground track
Ground track

The orbit data is extracted from the following two-line orbital elements,

1 39650U 14019A   17260.70558653 0.00000339  00000-0  16812-4 0    03
2 39650 140.9247 149.1005 0007746 345.2101  14.7635 15.16853167    01
Epoch (UTC): 17 September 2017 16:56:02
Eccentricity: 0.0007746
inclination: 140.9247°
perigee height: 510 km
apogee height: 521 km
right ascension of ascending node: 149.1005°
argument of perigee: 345.2101°
revolutions per day: 15.16853167
mean anomaly at epoch: 14.7635°
orbit number at epoch: 0

The dashed part of the orbit path shows where the satellite is in the earth's shadow,  

DLR